This demonstration page uses our WeatherBlox Daily Observations layout. Learn more.

Hourly Observations for October 20, 2015

Temp ( °F °C ) Dew Point ( °F °C ) Humidity (%) Winds ( mph kmh ) Pressure ( in mb ) Visibility ( mi km ) Precip ( " mm )
12:15 am 00:15 Clear 65 18.2 47 8.3 53 53 SSE 6 9 29.77 1008 10 16.0934 0 0
12:35 am 00:35 Clear 64 17.5 47 8.3 55 55 S 6 9 29.77 1008 10 16.0934 0 0
12:55 am 00:55 Clear 63 17 47 8.3 57 57 S 6 9 29.8 1009 10 16.0934 0 0
1:15 am 01:15 Clear 62 16.5 47 8.2 58 58 S 6 9 29.77 1008 10 16.0934 0 0
1:35 am 01:35 Clear 61 16.1 47 8.3 60 60 S 7 11 29.77 1008 10 16.0934 0 0
1:55 am 01:55 Clear 60 15.7 47 8.2 61 61 SSE 7 11 29.77 1008 10 16.0934 0 0
2:15 am 02:15 Clear 59 15.1 47 8.1 63 63 SSE 6 9 29.77 1008 10 16.0934 0 0
2:35 am 02:35 Clear 57 14.1 47 8.2 68 68 SSE 5 7 29.8 1009 10 16.0934 0 0
2:55 am 02:55 Clear 56 13.5 46 8 70 70 SSE 7 11 29.8 1009 10 16.0934 0 0
3:15 am 03:15 Clear 58 14.4 47 8.3 67 67 SSE 7 11 29.8 1009 10 16.0934 0 0
3:35 am 03:35 Clear 57 14.1 47 8.2 68 68 SSE 7 11 29.8 1009 10 16.0934 0 0
3:55 am 03:55 Clear 57 14 47 8.5 70 70 SSE 8 13 29.8 1009 10 16.0934 0 0
4:15 am 04:15 Clear 57 14.1 47 8.6 70 70 S 6 9 29.8 1009 10 16.0934 0 0
4:35 am 04:35 Clear 58 14.2 48 8.7 70 70 S 5 7 29.8 1009 10 16.0934 0 0
4:55 am 04:55 Clear 56 13.1 47 8.5 74 74 SSE 5 7 29.8 1009 10 16.0934 0 0
5:15 am 05:15 Clear 56 13.2 47 8.6 74 74 Calm 29.8 1009 10 16.0934 0 0
5:35 am 05:35 Clear 55 13 47 8.4 74 74 SSE 3 6 29.8 1009 10 16.0934 0 0
5:55 am 05:55 Clear 54 12.4 47 8.3 76 76 SSE 5 7 29.8 1009 10 16.0934 0 0
6:15 am 06:15 Clear 53 11.6 47 8.3 80 80 SSE 3 6 29.8 1009 10 16.0934 0 0
6:35 am 06:35 Clear 54 12 47 8.5 79 79 SSE 3 6 29.8 1009 10 16.0934 0 0
6:55 am 06:55 Clear 53 11.5 47 8.2 80 80 SSE 3 6 29.8 1009 10 16.0934 0 0
7:15 am 07:15 Clear 52 11.3 47 8.2 81 81 Calm 29.8 1009 10 16.0934 0 0
7:35 am 07:35 Clear 51 10.3 46 8 86 86 Calm 29.83 1010 10 16.0934 0 0
7:55 am 07:55 Sunny 49 9.3 45 7.4 88 88 Calm 29.85 1011 10 16.0934 0 0
8:15 am 08:15 Sunny 49 9.4 45 7.3 87 87 Calm 29.85 1011 10 16.0934 0 0
8:35 am 08:35 Sunny with Mist and Fog 50 9.9 46 7.8 87 87 Calm 29.85 1011 5 8.0467 0 0
8:55 am 08:55 Sunny 53 11.4 48 8.9 85 85 Calm 29.85 1011 7 11.26538 0 0
9:15 am 09:15 Sunny 56 13.2 49 9.5 78 78 Calm 29.85 1011 10 16.0934 0 0
9:35 am 09:35 Sunny 58 14.5 50 10 75 75 Calm 29.83 1010 7 11.26538 0 0
9:55 am 09:55 Sunny 60 15.5 50 10.1 70 70 Calm 29.83 1010 10 16.0934 0 0
10:15 am 10:15 Sunny 62 16.5 51 10.4 67 67 Calm 29.83 1010 10 16.0934 0 0
10:35 am 10:35 Sunny 63 17.4 51 10.4 64 64 Calm 29.83 1010 10 16.0934 0 0
10:55 am 10:55 Sunny 65 18.2 51 10.3 60 60 Calm 29.83 1010 10 16.0934 0 0
11:15 am 11:15 Sunny 67 19.4 51 10.5 57 57 Calm 29.8 1009 10 16.0934 0 0
11:35 am 11:35 Sunny 69 20.5 51 10.5 53 53 Calm 29.8 1009 10 16.0934 0 0
11:55 am 11:55 Sunny 71 21.9 51 10.6 49 49 ESE 6 9 29.77 1008 10 16.0934 0 0
12:15 pm 12:15 Sunny 72 22.1 51 10.3 47 47 ESE 5 7 29.77 1008 10 16.0934 0 0
12:35 pm 12:35 Sunny 73 22.9 51 10.4 45 45 ENE 5 7 29.77 1008 10 16.0934 0 0
12:55 pm 12:55 Sunny 74 23.5 51 10.3 43 43 E 5 7 29.77 1008 10 16.0934 0 0
1:15 pm 13:15 Sunny 76 24.4 50 10.1 41 41 SE 3 6 29.77 1008 10 16.0934 0 0
1:35 pm 13:35 Sunny 77 25.1 50 9.8 38 38 ENE 5 7 29.77 1008 7 11.26538 0 0
1:55 pm 13:55 Sunny 78 25.7 49 9.7 36 36 E 3 6 29.71 1006 10 16.0934 0 0
2:15 pm 14:15 Sunny 80 26.4 49 9.3 34 34 SE 6 9 29.71 1006 10 16.0934 0 0
2:35 pm 14:35 Sunny 80 26.9 48 9 32 32 SE 5 7 29.71 1006 10 16.0934 0 0
2:55 pm 14:55 Sunny 81 27 48 8.9 32 32 E 6 9 29.68 1005 10 16.0934 0 0
3:15 pm 15:15 Sunny 81 27.1 47 8.5 31 31 Calm 29.68 1005 10 16.0934 0 0
3:35 pm 15:35 Sunny 81 27.4 47 8.2 30 30 SE 6 9 29.68 1005 10 16.0934 0 0
3:55 pm 15:55 Sunny 82 27.5 47 8.4 30 30 Calm 29.68 1005 10 16.0934 0 0
4:15 pm 16:15 Sunny 81 27.2 47 8.4 31 31 SE 3 6 29.68 1005 10 16.0934 0 0
4:35 pm 16:35 Sunny 81 27.1 47 8.2 30 30 Calm 29.71 1006 10 16.0934 0 0
4:55 pm 16:55 Sunny 82 27.5 46 7.7 29 29 SE 3 6 29.71 1006 10 16.0934 0 0
5:15 pm 17:15 Sunny 81 27 46 7.7 29 29 S 3 6 29.71 1006 10 16.0934 0 0
5:35 pm 17:35 Sunny 80 26.6 46 7.9 31 31 SSE 3 6 29.71 1006 10 16.0934 0 0
5:55 pm 17:55 Sunny 80 26.6 46 8 31 31 Calm 29.71 1006 10 16.0934 0 0
6:15 pm 18:15 Sunny 80 26.5 47 8.1 31 31 Calm 29.71 1006 10 16.0934 0 0
6:35 pm 18:35 Sunny 78 25.7 47 8.2 33 33 Calm 29.71 1006 10 16.0934 0 0
6:55 pm 18:55 Clear 71 21.9 47 8.5 42 42 Calm 29.77 1008 10 16.0934 0 0
7:15 pm 19:15 Clear 69 20.7 47 8.5 46 46 Calm 29.8 1009 7 11.26538 0 0
7:35 pm 19:35 Hazy 66 19 47 8.5 51 51 Calm 29.8 1009 4 6.43736 0 0
7:55 pm 19:55 Hazy 67 19.2 47 8.5 50 50 Calm 29.8 1009 5 8.0467 0 0
8:15 pm 20:15 Hazy 64 17.5 47 8.3 55 55 Calm 29.83 1010 5 8.0467 0 0
8:35 pm 20:35 Hazy 65 18.6 48 9 54 54 NNE 3 6 29.8 1009 5 8.0467 0 0
8:55 pm 20:55 Clear 64 17.7 48 9 57 57 NNE 6 9 29.83 1010 7 11.26538 0 0
9:15 pm 21:15 Clear 63 17 48 9.1 60 60 NNE 7 11 29.83 1010 7 11.26538 0 0
9:35 pm 21:35 Clear 63 17.4 49 9.3 59 59 Calm 29.85 1011 10 16.0934 0 0
9:55 pm 21:55 Clear 64 17.7 49 9.3 58 58 SW 3 6 29.88 1012 7 11.26538 0 0
10:15 pm 22:15 Clear 64 17.5 49 9.4 59 59 W 5 7 29.88 1012 7 11.26538 0 0
10:35 pm 22:35 Clear 63 17.2 49 9.5 61 61 Calm 29.88 1012 7 11.26538 0 0
10:55 pm 22:55 Clear 61 16.3 49 9.5 64 64 WNW 3 6 29.88 1012 7 11.26538 0 0
11:15 pm 23:15 Clear 59 15 49 9.2 68 68 NW 5 7 29.91 1013 7 11.26538 0 0
11:35 pm 23:35 Clear 62 16.9 49 9.5 62 62 NNW 5 7 29.88 1012 10 16.0934 0 0
11:55 pm 23:55 Clear 61 16.3 49 9.3 63 63 Calm 29.88 1012 10 16.0934 0 0

Powered by AerisWeather